Location: Gleizolles
(44.4833°N, 6.7667°E)
Time: 15:28:10
(UTC+00:00)

Explorer 7 - Pass Details

Date: 25 June 2024
Orbit: 465 x 619 km, 50.3° (Epoch: 12 July)

Event Time Altitude Azimuth Distance (km) Brightness Sun altitude
Rises 11:30:25 0° 276° (W) 2,667 10.3 68.9°
Reaches altitude 10° 11:32:50 10° 285° (WNW) 1,749 9.5 68.9°
Maximum altitude 11:36:29 35° 352° (N) 823 8.0 68.9°
Drops below altitude 10° 11:40:00 10° 61° (ENE) 1,675 9.3 68.9°
Sets 11:42:15 0° 70° (ENE) 2,536 10.1 68.8°
